Weather History for Fort Drum, NY

Change the Weather History Date:

Wednesday, September 4, 2013

  Actual Average Record
Temperature  
Mean Temperature 66 °F -  
Max Temperature 74 °F 72 °F 89 °F (1999)
Min Temperature 57 °F 52 °F 37 °F (1997)
Growing Degree Days 16 (Base 50)    
Moisture  
Dew Point 57 °F    
Average Humidity 78    
Maximum Humidity 100    
Minimum Humidity 47    
Precipitation  
Precipitation 0.07 in - - ()
Sea Level Pressure  
Sea Level Pressure 29.92 in    
Wind  
Wind Speed 7 mph (West)    
Max Wind Speed 12 mph    
Max Gust Speed 23 mph    
Visibility 10 miles    
Events Rain    
Averages and records for this station are not official NWS values.
T = Trace of Precipitation, MM = Missing Value Source: NWS Daily Summary

Daily Weather History Graph

Daily Weather History Graph

Search for Another Location

Airport:

Trip Planner

Search our weather history database for the weather conditions in past years. The results will help you decide how hot, cold, wet, or windy it might be!

Date:

Astronomy

Sep. 04, 2013 Rise Set
Actual Time 6:29 AM EDT 7:33 PM EDT
Civil Twilight 6:00 AM EDT 8:02 PM EDT
Nautical Twilight 5:24 AM EDT 8:37 PM EDT
Astronomical Twilight 4:47 AM EDT 9:14 PM EDT
Moon 5:39 AM EDT (9/4) 6:50 PM EDT (9/4)
Length of Visible Light 14h 02m
Length of Day
13h 03m
Waning Crescent, 1% of the Moon is Illuminated
Sep 4
Waning Crescent
Sep 5
New
Sep 12
First Quarter
Sep 19
Full
Sep 26
Last Quarter

Hourly Weather History & Observations

Time (EDT) Temp. Dew Point Humidity Pressure Visibility Wind Dir Wind Speed Gust Speed Precip Events Conditions
12:58 AM 61.5 °F 55.2 °F 80% 29.88 in 10.0 mi West 5.8 mph - N/A   Mostly Cloudy
1:58 AM 59.4 °F 52.5 °F 78% 29.89 in 10.0 mi West 4.6 mph - N/A   Clear
2:58 AM 57.6 °F 52.3 °F 83% 29.89 in 10.0 mi SW 5.8 mph - N/A   Clear
3:58 AM 57.2 °F 52.2 °F 83% 29.89 in 10.0 mi SW 5.8 mph - N/A   Clear
4:58 AM 57.4 °F 52.3 °F 83% 29.90 in 10.0 mi WSW 5.8 mph - N/A   Clear
5:58 AM 57.7 °F 52.5 °F 83% 29.90 in 10.0 mi WSW 6.9 mph - N/A   Clear
6:58 AM 58.5 °F 53.4 °F 83% 29.91 in 10.0 mi WSW 6.9 mph - N/A   Clear
7:58 AM 62.2 °F 54.5 °F 76% 29.92 in 10.0 mi West 8.1 mph - N/A   Clear
8:58 AM 66.4 °F 55.2 °F 67% 29.92 in 10.0 mi West 8.1 mph - N/A   Clear
9:58 AM 68.2 °F 52.7 °F 58% 29.93 in 10.0 mi West 9.2 mph - N/A   Scattered Clouds
10:58 AM 67.3 °F 53.1 °F 60% 29.94 in 10.0 mi West 10.4 mph 18.4 mph N/A   Partly Cloudy
11:58 AM 70.2 °F 56.3 °F 61% 29.94 in 10.0 mi West 11.5 mph 19.6 mph N/A   Scattered Clouds
12:58 PM 71.6 °F 54.1 °F 54% 29.94 in 10.0 mi West 9.2 mph 17.3 mph N/A   Partly Cloudy
1:58 PM 72.9 °F 54.7 °F 53% 29.93 in 10.0 mi West 9.2 mph 16.1 mph N/A   Scattered Clouds
2:58 PM 74.1 °F 52.9 °F 47% 29.92 in 10.0 mi WSW 10.4 mph 18.4 mph N/A   Partly Cloudy
3:58 PM 70.2 °F 55.9 °F 61% 29.91 in 10.0 mi WSW 9.2 mph - N/A   Overcast
4:58 PM 68.9 °F 55.8 °F 63% 29.91 in 10.0 mi WSW 10.4 mph - N/A   Overcast
5:09 PM 68.0 °F 57.2 °F 68% 29.91 in 10.0 mi West 11.5 mph 17.3 mph N/A   Light Drizzle
5:44 PM 64.4 °F 59.0 °F 83% 29.92 in 10.0 mi North 5.8 mph - N/A Rain Light Rain
5:49 PM 64.4 °F 59.0 °F 83% 29.92 in 10.0 mi West 11.5 mph - N/A Rain Light Rain
5:54 PM 62.6 °F 60.8 °F 94% 29.93 in 10.0 mi NNW 4.6 mph - N/A Rain Light Rain
5:58 PM 63.1 °F 60.3 °F 90% 29.92 in 8.0 mi Variable 2.3 mph - 0.01 in Rain Rain
6:03 PM 62.6 °F 60.8 °F 94% 29.92 in 7.0 mi WNW 2.3 mph - N/A Rain Light Rain
6:58 PM 63.1 °F 61.2 °F 93% 29.92 in 10.0 mi West 10.4 mph - 0.03 in   Overcast
7:58 PM 63.1 °F 62.1 °F 96% 29.93 in 10.0 mi SW 3.5 mph - 0.00 in   Overcast
8:02 PM 62.6 °F 62.6 °F 100% 29.94 in 9.0 mi Calm Calm - N/A Rain Light Rain
8:58 PM 63.1 °F 61.2 °F 93% 29.93 in 9.0 mi SW 5.8 mph - 0.02 in Rain Light Rain
9:58 PM 62.8 °F 61.3 °F 95% 29.93 in 9.0 mi WSW 3.5 mph - 0.01 in   Mostly Cloudy
10:58 PM 62.6 °F 60.8 °F 94% 29.93 in 10.0 mi West 4.6 mph - N/A   Mostly Cloudy
11:58 PM 60.4 °F 57.9 °F 91% 29.93 in 10.0 mi North 10.4 mph 23.0 mph N/A   Mostly Cloudy